Terminal Aerodrome Forecast
Issued by NWS St Louis, MO

Home | Current Version | Previous Version | Text Only | Print | Product List | Glossary On
Versions: 1 2 3 4 5 6 7 8 9 10 11 12 13 14 15 16 17 18 19 20 21 22
000
FTUS43 KLSX 130500
TAFSTL
TAF
KSTL 130520Z 1306/1412 21010KT P6SM BKN250
     FM131200 26006KT P6SM VCSH SCT050 BKN100
     FM131500 27008KT P6SM SCT050 BKN100
     FM132000 32008KT P6SM VCTS SCT050CB BKN100
     FM140100 33004KT P6SM SCT250=

USA.gov is the U.S. government's official web portal to all federal, state and local government web resources and services.